User: anonymous   Login
Location: Unspecified
(0.0000°N, 0.0000°E)
Time: 06:06:49
(UTC+00:00)
Language:

NOSS 3-4 (C) - Orbit

View from above orbital plane
View from above orbital plane
View from above satellite
View from above satellite

Ground track
Ground track

The orbit data is extracted from the following two-line orbital elements,

1 31708U 07027C   18158.04644162 0.00000000  00000-0  00000-0 0    08
2 31708  63.3999 258.8055 0226000  19.9981 340.0019 13.40753295    06
Epoch (UTC): 07 June 2018 01:06:52
Eccentricity: 0.0226000
inclination: 63.3999°
perigee height: 937 km
apogee height: 1275 km
right ascension of ascending node: 258.8055°
argument of perigee: 19.9981°
revolutions per day: 13.40753295
mean anomaly at epoch: 340.0019°
orbit number at epoch: 0

The dashed part of the orbit path shows where the satellite is in the earth's shadow,  

DLR